Volver al catálogo

STARLINK-35554

ActivoComunicacionesVLEO
NORAD 66239·PAYLOAD·🇺🇸 United States

Lanzado Oct 29, 2025 desde Cape Canaveral Space Force Station

Loading…

Próximos Pases (próximas 24 horas)

TLE

ActualizadoSource: CelesTrak SupGP

Época: Sep 14, 2026, 14:22 UTC

1 66239C 25245F   26257.59909722  .00050432  00000+0  16192-2 0  2570
2 66239  53.1562 125.4123 0001446  89.8074 276.0497 15.31726761    14

Sigue STARLINK-35554 en tiempo real con AllMySat

Download on the App Store